Date String (YYYY-MM-DD hh:mm:ss) UTC,Instrument flags,absolute air pressure of the measurement (hPa),sample flow rate (lpm),inlet stack bypass flow (lpm),air temperature of the measurement (°C),ambient temperature measured by the external sensor (°C),aerosol sample conditioner tube jacket temperature (°C),OPC LED temperature (°C),internal box temperature (°C),relative humidity of the measurement (%),span deviation,mass concentration of particles derived from Lorenz-Mie calculation of OPC scattering (μg/m³),mass concentration of particles derived from Lorenz-Mie calculation of OPC scattering (μg/m³),mass concentration of particles derived from Lorenz-Mie calculation of OPC scattering (μg/m³)
DateTimeUTC,F1_M11,P_M11,Q1_M11,Q2_M11,T1_M11,T2_M11,T3_M11,T4_M11,T5_M11,U1_M11,ZSPAN_M11,X2_M11,X0_M11,X1_M11
2023-11-06 07:00:00,SystemResetWarning,0827.1,5.00,000.00,028.4,027.4,000.0,036.8,029.7,10.6,0000.0,0003.63,0011.49,0002.85
2023-11-06 07:01:00,SystemResetWarning,0827.1,5.00,000.00,028.4,027.3,000.0,036.8,029.7,10.7,0000.0,0003.63,0011.66,0002.85
2023-11-06 07:02:00,SystemResetWarning,0827.0,5.00,000.00,028.4,027.3,000.0,036.8,029.7,10.6,0000.0,0003.62,0011.99,0002.84
2023-11-06 07:03:00,SystemResetWarning,0827.0,5.00,000.00,028.4,027.3,000.0,036.8,029.8,10.6,0000.0,0003.65,0012.07,0002.83
2023-11-06 07:04:00,SystemResetWarning,0827.0,5.01,000.00,028.4,027.3,000.0,036.8,029.8,10.6,0000.0,0003.61,0011.59,0002.82
2023-11-06 07:05:00,SystemResetWarning,0826.9,5.01,000.00,028.4,027.4,000.0,036.8,029.8,10.6,0000.0,0003.59,0011.49,0002.82
2023-11-06 07:06:00,SystemResetWarning,0826.9,5.00,000.00,028.4,027.4,000.0,036.8,029.8,10.6,0000.0,0003.63,0011.33,0002.83
2023-11-06 07:07:00,SystemResetWarning,0826.9,5.00,000.00,028.4,027.4,000.0,036.8,029.8,10.6,0000.0,0003.65,0010.09,0002.82
2023-11-06 07:08:00,SystemResetWarning,0826.9,4.99,000.00,028.4,027.4,000.0,036.8,029.9,10.5,0000.0,0003.62,0009.85,0002.81
2023-11-06 07:09:00,SystemResetWarning,0827.0,4.99,000.00,028.4,027.4,000.0,036.8,029.9,10.7,0000.0,0003.57,0010.18,0002.80
2023-11-06 07:10:00,SystemResetWarning,0827.0,5.00,000.00,028.4,027.4,000.0,036.8,029.8,10.7,0000.0,0003.60,0010.27,0002.81
2023-11-06 07:11:00,SystemResetWarning,0827.0,5.01,000.00,028.4,027.4,000.0,036.8,029.8,10.8,0000.0,0003.57,0010.00,0002.81
2023-11-06 07:12:00,SystemResetWarning,0827.0,5.01,000.00,028.4,027.4,000.0,036.8,029.8,10.7,0000.0,0003.53,0009.74,0002.81
2023-11-06 07:13:00,SystemResetWarning,0827.0,5.01,000.00,028.4,027.4,000.0,036.8,029.8,10.7,0000.0,0003.51,0009.81,0002.80
2023-11-06 07:14:00,SystemResetWarning,0827.1,5.00,000.00,028.4,027.4,000.0,036.8,029.8,10.7,0000.0,0003.50,0009.52,0002.81
2023-11-06 07:15:00,SystemResetWarning,0827.1,4.99,000.00,028.4,027.4,000.0,036.8,029.8,10.7,0000.0,0003.49,0009.39,0002.81
2023-11-06 07:16:00,SystemResetWarning,0827.2,5.00,000.00,028.4,027.3,000.0,036.8,029.8,10.7,0000.0,0003.51,0009.67,0002.81
2023-11-06 07:17:00,SystemResetWarning,0827.2,5.01,000.00,028.4,027.3,000.0,036.8,029.8,10.6,0000.0,0003.51,0009.53,0002.81
2023-11-06 07:18:00,SystemResetWarning,0827.3,5.00,000.00,028.4,027.3,000.0,036.8,029.7,10.6,0000.0,0003.50,0009.54,0002.81
2023-11-06 07:19:00,SystemResetWarning,0827.3,5.01,000.00,028.4,027.3,000.0,036.8,029.7,10.6,0000.0,0003.51,0008.73,0002.82
2023-11-06 07:20:00,SystemResetWarning,0827.3,5.00,000.00,028.4,027.3,000.0,036.8,029.7,10.6,0000.0,0003.54,0008.03,0002.83
2023-11-06 07:21:00,SystemResetWarning,0827.2,4.99,000.00,028.4,027.3,000.0,036.8,029.7,10.6,0000.0,0003.56,0008.17,0002.84
2023-11-06 07:22:00,SystemResetWarning,0827.1,4.99,000.00,028.4,027.3,000.0,036.8,029.7,10.6,0000.0,0003.56,0008.46,0002.83
2023-11-06 07:23:00,SystemResetWarning,0827.1,4.99,000.00,028.4,027.3,000.0,036.8,029.7,10.6,0000.0,0003.60,0008.86,0002.82
2023-11-06 07:24:00,SystemResetWarning,0827.0,5.01,000.00,028.4,027.3,000.0,036.8,029.8,10.5,0000.0,0003.64,0008.53,0002.82
2023-11-06 07:25:00,SystemResetWarning,0827.0,5.01,000.00,028.4,027.3,000.0,036.8,029.8,10.5,0000.0,0003.62,0008.63,0002.79
2023-11-06 07:26:00,SystemResetWarning,0827.0,5.00,000.00,028.4,027.4,000.0,036.8,029.8,10.7,0000.0,0003.65,0009.00,0002.80
2023-11-06 07:27:00,SystemResetWarning,0827.1,5.00,000.00,028.4,027.4,000.0,036.8,029.8,10.7,0000.0,0003.68,0009.16,0002.80
2023-11-06 07:28:00,SystemResetWarning,0827.2,4.99,000.00,028.4,027.4,000.0,036.8,029.8,10.7,0000.0,0003.70,0009.78,0002.81
2023-11-06 07:29:00,SystemResetWarning,0827.2,4.99,000.00,028.4,027.3,000.0,036.8,029.8,10.7,0000.0,0003.67,0010.28,0002.81
2023-11-06 07:30:00,SystemResetWarning,0827.3,4.99,000.00,028.3,027.3,000.0,036.8,029.7,10.7,0000.0,0003.64,0010.37,0002.82
2023-11-06 07:31:00,SystemResetWarning,0827.3,5.00,000.00,028.3,027.2,000.0,036.8,029.7,10.6,0000.0,0003.63,0010.43,0002.82
2023-11-06 07:32:00,SystemResetWarning,0827.3,5.00,000.00,028.3,027.2,000.0,036.8,029.7,10.6,0000.0,0003.60,0010.33,0002.81
2023-11-06 07:33:00,SystemResetWarning,0827.2,5.01,000.00,028.3,027.3,000.0,036.8,029.7,10.6,0000.0,0003.62,0010.59,0002.80
2023-11-06 07:34:00,SystemResetWarning,0827.3,5.01,000.00,028.3,027.3,000.0,036.8,029.7,10.6,0000.0,0003.61,0010.26,0002.80
2023-11-06 07:35:00,SystemResetWarning,0827.4,5.00,000.00,028.3,027.3,000.0,036.8,029.7,10.6,0000.0,0003.61,0010.71,0002.80
2023-11-06 07:36:00,SystemResetWarning,0827.4,4.99,000.00,028.3,027.3,000.0,036.8,029.7,10.6,0000.0,0003.61,0011.01,0002.80
2023-11-06 07:37:00,SystemResetWarning,0827.4,4.99,000.00,028.3,027.2,000.0,036.8,029.7,10.6,0000.0,0003.58,0010.98,0002.79
2023-11-06 07:38:00,SystemResetWarning,0827.4,4.99,000.00,028.3,027.2,000.0,036.8,029.7,10.6,0000.0,0003.53,0011.16,0002.78
2023-11-06 07:39:00,SystemResetWarning,0827.4,5.00,000.00,028.3,027.2,000.0,036.7,029.7,10.6,0000.0,0003.49,0010.52,0002.76
2023-11-06 07:40:00,SystemResetWarning,0827.2,5.01,000.00,028.3,027.2,000.0,036.7,029.7,10.5,0000.0,0003.50,0009.81,0002.75
2023-11-06 07:41:00,SystemResetWarning,0827.2,5.00,000.00,028.3,027.2,000.0,036.7,029.7,10.5,0000.0,0003.56,0009.86,0002.74
2023-11-06 07:42:00,SystemResetWarning,0827.1,5.01,000.00,028.3,027.3,000.0,036.7,029.7,10.6,0000.0,0003.59,0009.83,0002.72
2023-11-06 07:43:00,SystemResetWarning,0827.1,5.00,000.00,028.3,027.3,000.0,036.7,029.7,10.5,0000.0,0003.59,0010.18,0002.72
2023-11-06 07:44:00,SystemResetWarning,0827.1,5.00,000.00,028.3,027.3,000.0,036.7,029.8,10.6,0000.0,0003.57,0009.79,0002.73
2023-11-06 07:45:00,SystemResetWarning,0827.2,4.99,000.00,028.3,027.3,000.0,036.7,029.8,10.6,0000.0,0003.57,0010.01,0002.74
2023-11-06 07:46:00,SystemResetWarning,0827.1,5.00,000.00,028.3,027.3,000.0,036.7,029.7,10.7,0000.0,0003.57,0009.90,0002.74
2023-11-06 07:47:00,SystemResetWarning,0827.1,4.99,000.00,028.3,027.3,000.0,036.7,029.7,10.7,0000.0,0003.56,0009.15,0002.74
2023-11-06 07:48:00,SystemResetWarning,0827.1,5.01,000.00,028.3,027.3,000.0,036.7,029.7,10.6,0000.0,0003.55,0009.45,0002.74
2023-11-06 07:49:00,SystemResetWarning,0827.1,5.01,000.00,028.3,027.3,000.0,036.7,029.7,10.6,0000.0,0003.55,0009.67,0002.73
2023-11-06 07:50:00,SystemResetWarning,0827.1,5.01,000.00,028.3,027.2,000.0,036.7,029.7,10.6,0000.0,0003.58,0010.09,0002.72
2023-11-06 07:51:00,SystemResetWarning,0827.1,5.00,000.00,028.3,027.2,000.0,036.7,029.7,10.7,0000.0,0003.54,0010.08,0002.70
2023-11-06 07:52:00,SystemResetWarning,0827.2,4.98,000.00,028.2,027.2,000.0,036.7,029.7,10.7,0000.0,0003.50,0010.22,0002.69
2023-11-06 07:53:00,SystemResetWarning,0827.2,5.00,000.00,028.2,027.2,000.0,036.7,029.7,10.7,0000.0,0003.43,0010.07,0002.66
2023-11-06 07:54:00,SystemResetWarning,0827.1,5.01,000.00,028.2,027.2,000.0,036.7,029.6,10.7,0000.0,0003.44,0010.07,0002.64
2023-11-06 07:55:00,SystemResetWarning,0827.1,5.00,000.00,028.2,027.1,000.0,036.7,029.6,10.8,0000.0,0003.44,0010.61,0002.60
2023-11-06 07:56:00,SystemResetWarning,0827.1,5.00,000.00,028.2,027.1,000.0,036.7,029.6,10.9,0000.0,0003.39,0010.33,0002.57
2023-11-06 07:57:00,SystemResetWarning,0827.1,4.99,000.00,028.2,027.1,000.0,036.7,029.6,10.7,0000.0,0003.35,0010.35,0002.55
2023-11-06 07:58:00,SystemResetWarning,0827.1,4.99,000.00,028.2,027.0,000.0,036.7,029.5,10.8,0000.0,0003.35,0010.31,0002.55
2023-11-06 07:59:00,SystemResetWarning,0827.1,5.00,000.00,028.2,027.0,000.0,036.7,029.5,10.8,0000.0,0003.37,0009.99,0002.53
